Flag for U.S.A. Weather past 2 weeks in Metairie, Louisiana, U.S.A.

74 °F

Passing clouds.

Feels Like: 73 °F
Forecast: 70 / 82 °F
Wind: 7 mph from Southwest

Location: New Orleans International Airport

Current Time: Oct 10, 2015 at 1:09:56 AM

Latest Report: Oct 10, 2015 at 12:53 AM

Visibility: 10 mi

Pressure: 30.05 "Hg

Humidity: 85%

Dew point: 69 °F

Location of MetairieLocation

Historic Weather in Metairie — Graph


Metairie temperature yesterday

Maximum temperature yesterday: 86 °F (at 4:53 PM)
Minimum temperature yesterday: 67 °F (at 4:53 AM)
Average temperature yesterday: 77 °F

Past Weeks' High & Low Weather Summary

High89 °F (Sep 30, 3:53 PM)93% (Oct 9, 4:53 AM)30.12 "Hg (Oct 9, 4:53 AM)
Low60 °F (Oct 4, 7:53 AM)39% (Oct 9, 1:53 PM)29.76 "Hg (Sep 28, 4:53 PM)
Average75 °F69%29.92 "Hg
* Reported Sep 24 11:53 PM — Oct 9 11:53 PM, Metairie, Weather by CustomWeather, © 2015

Note: Actual official high and low records may vary slightly from our data, if they occured in-between our weather recording intervals... More about our weather records


Metairie weather history for previous 24 hours

Time TempWeatherWind HumidityBarometerVisibility
11:53 PM
Fri, Oct 9
74 °FPassing clouds.7 mph82%30.06 "Hg10 mi
10:53 PM74 °FPassing clouds.7 mph79%30.06 "Hg10 mi
9:53 PM74 °FPassing clouds.6 mph79%30.06 "Hg10 mi
8:53 PM75 °FPassing clouds.6 mph74%30.04 "Hg10 mi
7:53 PM78 °FPassing clouds.5 mph58%30.03 "Hg10 mi
6:53 PM80 °FPartly sunny.5 mph52%30.02 "Hg10 mi
5:53 PM85 °FPartly sunny.No wind51%30.02 "Hg10 mi
4:53 PM86 °FPartly sunny.No wind45%30.02 "Hg10 mi
3:53 PM85 °FPartly sunny.5 mph45%30.03 "Hg10 mi
2:53 PM85 °FPartly sunny.3 mph42%30.02 "Hg10 mi
1:53 PM85 °FPartly sunny.5 mph39%30.06 "Hg10 mi
12:53 PM84 °FPartly sunny.3 mph48%30.09 "Hg10 mi
11:53 AM82 °FPartly sunny.6 mph58%30.10 "Hg10 mi
10:53 AM81 °FPartly sunny.7 mph58%30.12 "Hg10 mi
9:53 AM79 °FScattered clouds.6 mph67%30.12 "Hg10 mi
8:53 AM77 °FBroken clouds.6 mph79%30.11 "Hg10 mi
7:53 AM74 °FPartly cloudy.6 mph85%30.10 "Hg10 mi
6:53 AM73 °FPassing clouds.3 mph88%30.07 "Hg10 mi
5:53 AM73 °FPassing clouds.6 mph88%30.06 "Hg10 mi
4:53 AM67 °FFog.No wind93%30.06 "Hg8 mi
3:53 AM70 °FFog.No wind87%30.04 "Hg9 mi
2:53 AM68 °FFog.No wind87%30.04 "Hg9 mi
1:53 AM69 °FFog.No wind87%30.04 "Hg10 mi
Weather by CustomWeather, © 2015

See weather overviewHow to use our weather pages